TimeAKST,TemperatureF,Dew PointF,Humidity,Sea Level PressureIn,VisibilityMPH,Wind Direction,Wind SpeedMPH,Gust SpeedMPH,PrecipitationIn,Events,Conditions,WindDirDegrees,DateUTC
12:54 AM,28.9,26.1,89,30.23,10.0,WNW,8.1,-,N/A,,Clear,290,2013-03-03 09:54:00
1:54 AM,28.9,25.0,85,30.26,10.0,WNW,8.1,-,N/A,,Clear,300,2013-03-03 10:54:00
2:54 AM,27.0,24.1,89,30.28,10.0,WNW,5.8,-,N/A,,Clear,290,2013-03-03 11:54:00
3:54 AM,27.0,24.1,89,30.30,10.0,NW,6.9,-,N/A,,Clear,310,2013-03-03 12:54:00
4:54 AM,26.1,24.1,92,30.32,10.0,Calm,Calm,-,N/A,,Clear,0,2013-03-03 13:54:00
5:54 AM,26.1,23.0,88,30.33,10.0,Calm,Calm,-,N/A,,Clear,0,2013-03-03 14:54:00
6:54 AM,26.1,23.0,88,30.33,10.0,WNW,10.4,-,N/A,,Overcast,290,2013-03-03 15:54:00
7:54 AM,27.0,23.0,85,30.35,10.0,WNW,10.4,-,N/A,,Mostly Cloudy,290,2013-03-03 16:54:00
8:54 AM,28.9,24.1,82,30.36,10.0,WNW,10.4,-,N/A,,Mostly Cloudy,290,2013-03-03 17:54:00
9:54 AM,32.0,24.1,73,30.38,10.0,WNW,10.4,-,N/A,,Overcast,290,2013-03-03 18:54:00
10:54 AM,34.0,25.0,70,30.39,10.0,WNW,12.7,-,N/A,,Overcast,290,2013-03-03 19:54:00
11:54 AM,35.1,23.0,61,30.40,10.0,WNW,13.8,-,N/A,,Clear,290,2013-03-03 20:54:00
12:54 PM,37.9,24.1,57,30.42,10.0,West,10.4,-,N/A,,Clear,280,2013-03-03 21:54:00
1:54 PM,36.0,28.9,76,30.43,10.0,South,3.5,-,N/A,,Mostly Cloudy,190,2013-03-03 22:54:00
2:54 PM,36.0,28.9,76,30.43,10.0,South,3.5,-,N/A,,Overcast,170,2013-03-03 23:54:00
3:54 PM,37.0,28.0,70,30.44,10.0,Calm,Calm,-,N/A,,Partly Cloudy,0,2013-03-04 00:54:00
4:54 PM,34.0,28.0,79,30.45,10.0,Calm,Calm,-,N/A,,Partly Cloudy,0,2013-03-04 01:54:00
5:54 PM,30.9,27.0,85,30.46,10.0,Calm,Calm,-,N/A,,Clear,0,2013-03-04 02:54:00
6:54 PM,30.0,28.0,92,30.48,10.0,Calm,Calm,-,N/A,,Clear,0,2013-03-04 03:54:00
7:54 PM,33.1,26.1,75,30.49,10.0,NW,9.2,-,N/A,,Clear,310,2013-03-04 04:54:00
8:54 PM,32.0,25.0,75,30.50,10.0,NW,11.5,-,N/A,,Scattered Clouds,310,2013-03-04 05:54:00
9:54 PM,30.0,25.0,82,30.50,10.0,WNW,12.7,-,N/A,,Clear,290,2013-03-04 06:54:00
10:54 PM,30.9,23.0,72,30.51,10.0,NW,13.8,19.6,N/A,,Partly Cloudy,310,2013-03-04 07:54:00
11:54 PM,28.9,23.0,78,30.52,10.0,WNW,16.1,-,N/A,,Clear,290,2013-03-04 08:54:00